STARLINK-1173 (45084 NORAD) Tracking and Keplerian Element Data

This shows tracking and keplerian element data for the satellite.

Feedback or suggestion? Click here.




ElementValue
Catalog45084
NameSTARLINK-1173
Epoch Orbit417
Epoch Day52.91667824
Epoch Year2020
RAAN118.0449
Inclination52.9969
Eccentricity0.0001149
Argument of Perigee68.7268
Mean Anonmoly77.0898
Mean Motion15.75078572
Decay Rate0.00086501
L11 45084U 20006AS 20052.91667824 .00086501 00000-0 56654-3 0 9990
L22 45084 52.9969 118.0449 0001149 68.7268 77.0898 15.75078572 4170

Live tracking and technical data element details for STARLINK-1173 (NORAD 45084). STARLINK-1173 can be tracked NOW for your location showing map with azimuth and elevation plus other details from your city location.

Track the satellite on the map from your city or location and see movement details for azimuth, elevation, latitude, longitude, range, height, and movement on the map or in text.







IsCatalogInMostPopularTable: catalog: 45084, numindb: 4
Update: records affected: 1



GetName: 45084 STARLINK-1173

Hit Count: updated at: Mon, 24 Feb 2020 17:11:51 GMT